Regional Weather Roundup
Issued by NWS

Home | Current Version | Previous Version | Graphics & Text | Print | Product List | Glossary On
Versions: 1 2 3 4 5 6 7 8 9 10 11 12 13 14 15 16 17 18 19 20 21 22 23 24 25 26 27 28 29 30 31 32 33 34 35 36 37 38 39 40 41 42 43 44 45 46 47 48 49 50
000
ASUS44 KMEG 270910
RWRTN
TENNESSEE HOURLY STATE WEATHER ROUNDUP
NATIONAL WEATHER SERVICE MEMPHIS TN
400 AM CDT FRI MAR 27 2015

TNZ002-004-019-021-049-052-054-088>092-271000-
WEST TENNESSEE

CITY           SKY/WX    TMP DP  RH WIND       PRES   REMARKS
MEMPHIS INTL   CLEAR     38  34  85 W3        30.03R
NWS MEMPHIS      N/A     33 N/A N/A MISG        N/A
JACKSON        CLEAR     30  28  92 CALM      30.02R
DYERSBURG      CLEAR     36  21  55 CALM      30.04S
UNION CITY     CLEAR     30  30 100 CALM      30.00S
PARIS          CLEAR     30  30 100 CALM      30.00R
LEXINGTON      CLEAR     32  30  93 CALM      29.96S
SAVANNAH       CLEAR     34  34 100 CALM      29.98S
$$

TNZ008-025-027-028-033-062-065-066-271000-
NORTH MIDDLE TENNESSEE

CITY           SKY/WX    TMP DP  RH WIND       PRES   REMARKS
NASHVILLE      MOCLDY    37  34  89 NW6       29.96F WCI  32
CLARKSVILLE    CLEAR     32  32 100 NW5       29.97F FOG     WCI  27
SMYRNA         PTCLDY    38  35  89 N7        29.96F WCI  33
COOKEVILLE     CLOUDY    39  37  93 N5        29.89F
CROSSVILLE     CLOUDY    39  35  86 N9        29.86F WCI  33
$$

TNZ061-075-076-078-094-096-097-271000-
SOUTH MIDDLE TENNESSEE

CITY           SKY/WX    TMP DP  RH WIND       PRES   REMARKS
FAYETTEVILLE   CLOUDY    37  36  93 N8        29.90F WCI  31
TULLAHOMA      CLOUDY    37  36  93 N8        29.91S WCI  31
WINCHESTER     CLOUDY    39  39 100 N8        29.90F WCI  34
MCMINNVILLE    MOCLDY    39  39 100 N9        29.90F WCI  33
COLUMBIA       CLEAR     36  36 100 CALM      29.93F
SHELBYVILLE    CLOUDY    39  37  93 N8        29.94S WCI  34
$$

TNZ017-018-042-046-047-271000-
NORTHEAST TENNESSEE

CITY           SKY/WX    TMP DP  RH WIND       PRES   REMARKS
TRI CITIES     CLOUDY    41  38  89 N5        29.81F
ELIZABETHTON   LGT RAIN  39  39 100 CALM      29.78F
$$

TNZ012-013-036-069-073-074-271000-
CENTRAL EAST TENNESSEE

CITY           SKY/WX    TMP DP  RH WIND       PRES   REMARKS
KNOXVILLE      LGT RAIN  42  39  89 N13G20    29.82F
OAK RIDGE      CLOUDY    42  38  85 NE7       29.83F
GATLINBURG     CLOUDY    43  39  87 NE5       29.81F
MORRISTOWN     PTSUNNY   41  39  93 N5        29.83F
$$

TNZ083-085-099-271000-
SOUTHEAST TENNESSEE

CITY           SKY/WX    TMP DP  RH WIND       PRES   REMARKS
CHATTANOOGA    CLOUDY    46  39  76 N13       29.85F
$$

SKY/WX REPORTED AS FAIR MEANS FEW OR NO CLOUDS BELOW
12 THOUSAND FEET.



USA.gov is the U.S. government's official web portal to all federal, state and local government web resources and services.